Hourly Data Report for October 09, 2015

All times are specified in Local Standard Time (LST). Add 1 hour to adjust for Daylight Saving Time where and when it is observed.

PENTICTON A
BRITISH COLUMBIA

49°27'45.000" N
119°36'08.000" W
344.40 m
1126146
71889
YYF

Download Data

Hourly Data (October 2015)
Hourly Data Report for October 9, 2015
Temp Definition
°C
Dew Point Temp Definition
°C
Rel Hum Definition
%
Wind Dir Definition
10's deg

Wind Spd Definition
km/h
Visibility Definition
km
Stn Press Definition
kPa
Hmdx Definition


Wind Chill Definition


Weather Definition


TIME
00:00 Legend Double Dagger 16.0 12.2 78 15 12 24.1 97.73     LegendNANA
01:00 Legend Double Dagger 16.5 12.1 75 16 15 24.1 97.67     Cloudy
02:00 Legend Double Dagger 15.5 12.3 81 11 3 24.1 97.66     LegendNANA
03:00 Legend Double Dagger 14.8 13.2 90 34 13 24.1 97.61     LegendNANA
04:00 Legend Double Dagger 14.4 13.0 91 2 4 24.1 97.55     Cloudy
05:00 Legend Double Dagger 14.1 12.7 91 34 8 24.1 97.48     LegendNANA
06:00 Legend Double Dagger 14.1 13.0 93 35 8 24.1 97.45     LegendNANA
07:00 Legend Double Dagger 15.6 11.8 78 14 21 24.1 97.30     Mostly Cloudy
08:00 Legend Double Dagger 15.9 11.9 77 17 23 24.1 97.30     LegendNANA
09:00 Legend Double Dagger 17.0 12.2 73 16 22 24.1 97.21     LegendNANA
10:00 Legend Double Dagger 17.9 12.0 68 19 30 24.1 97.23     Cloudy
11:00 Legend Double Dagger 18.1 12.2 68 19 28 24.1 97.19     LegendNANA
12:00 Legend Double Dagger 19.1 12.5 65 19 29 24.1 97.16     LegendNANA
13:00 Legend Double Dagger 19.1 12.5 65 18 22 24.1 97.13     Cloudy
14:00 Legend Double Dagger 19.6 12.9 65 18 24 24.1 97.10     LegendNANA
15:00 Legend Double Dagger 19.9 12.5 62 18 30 24.1 97.12     LegendNANA
16:00 Legend Double Dagger 20.4 13.0 62 19 30 24.1 97.12     Cloudy
17:00 Legend Double Dagger 20.3 13.1 63 19 24 24.1 97.11     LegendNANA
18:00 Legend Double Dagger 19.4 13.0 66 18 15 24.1 97.10     LegendNANA
19:00 Legend Double Dagger 19.2 13.0 67 15 13 24.1 97.12     Mostly Cloudy
20:00 Legend Double Dagger 19.0 12.8 67 16 13 24.1 97.08     LegendNANA
21:00 Legend Double Dagger 19.9 12.5 62 18 27 24.1 97.03     LegendNANA
22:00 Legend Double Dagger 19.5 12.4 63 19 36 24.1 97.03     Mostly Cloudy
23:00 Legend Double Dagger 18.9 12.3 65 19 33 24.1 96.97     LegendNANA

Notes on Data Quality.

Legend

  • E = Estimated
  • M = Missing
  • NA = Not Available
  • ‡ = Partner data that is not subject to review by the National Climate Archives
Date modified: